• în România
  • Lista ţărilor
  • Pe 7 zile
  • Temperatura apei
  • Hartă satelitară
  • Meteo pe hartă
  • Widget-uri
  • user-avatar
    Intrare

    Meteo pe oră la Tirana

    Astăzi, 28 Martie, Marţi

    Timp Temperatura Precipitaţii Vânt Presiune Umiditate
    00:00 +8°C° 0 mm 4 m/s 757 mmHg 74%
    01:00 +8°C° 0 mm 4 m/s 757 mmHg 75%
    02:00 +8°C° 0 mm 4 m/s 757 mmHg 75%
    03:00 +7°C° 0 mm 4 m/s 757 mmHg 75%
    04:00 +7°C° 0 mm 4 m/s 757 mmHg 75%
    05:00 +7°C° 0 mm 4 m/s 757 mmHg 72%
    06:00 +8°C° 0 mm 4 m/s 757 mmHg 69%
    07:00 +10°C° 0 mm 4 m/s 757 mmHg 65%
    08:00 +12°C° 0 mm 4 m/s 757 mmHg 57%
    09:00 +14°C° 0 mm 3 m/s 757 mmHg 50%
    10:00 +17°C° 0 mm 3 m/s 757 mmHg 42%
    11:00 +18°C° 0 mm 3 m/s 757 mmHg 39%
    12:00 +20°C° 0 mm 3 m/s 757 mmHg 37%
    13:00 +21°C° 0 mm 3 m/s 757 mmHg 35%
    14:00 +20°C° 0 mm 4 m/s 757 mmHg 37%
    15:00 +20°C° 0 mm 5 m/s 757 mmHg 38%
    16:00 +19°C° 0 mm 6 m/s 756 mmHg 40%
    17:00 +16°C° 0 mm 5 m/s 757 mmHg 49%
    18:00 +13°C° 0 mm 5 m/s 757 mmHg 57%
    19:00 +10°C° 0 mm 5 m/s 757 mmHg 66%
    20:00 +10°C° 0 mm 5 m/s 757 mmHg 65%
    21:00 +10°C° 0 mm 4 m/s 758 mmHg 63%
    22:00 +10°C° 0 mm 4 m/s 758 mmHg 62%
    23:00 +10°C° 0 mm 4 m/s 758 mmHg 62%

    Mâine, 29 Martie, Miercuri

    Timp Temperatura Precipitaţii Vânt Presiune Umiditate
    00:00 +10°C° 0 mm 4 m/s 758 mmHg 61%
    01:00 +9°C° 0 mm 3 m/s 758 mmHg 61%
    02:00 +9°C° 0 mm 3 m/s 758 mmHg 61%
    03:00 +9°C° 0 mm 3 m/s 758 mmHg 60%
    04:00 +9°C° 0 mm 3 m/s 758 mmHg 60%
    05:00 +9°C° 0 mm 3 m/s 758 mmHg 58%
    06:00 +10°C° 0 mm 3 m/s 758 mmHg 56%
    07:00 +11°C° 0 mm 3 m/s 758 mmHg 55%
    08:00 +14°C° 0 mm 3 m/s 758 mmHg 48%
    09:00 +17°C° 0 mm 3 m/s 758 mmHg 41%
    10:00 +20°C° 0 mm 2 m/s 758 mmHg 34%
    11:00 +21°C° 0 mm 3 m/s 757 mmHg 32%
    12:00 +22°C° 0 mm 4 m/s 757 mmHg 30%
    13:00 +23°C° 0 mm 4 m/s 757 mmHg 29%
    14:00 +22°C° 0 mm 5 m/s 756 mmHg 32%
    15:00 +21°C° 0 mm 5 m/s 756 mmHg 35%
    16:00 +21°C° 0 mm 6 m/s 755 mmHg 38%
    17:00 +17°C° 0 mm 5 m/s 756 mmHg 48%
    18:00 +15°C° 0 mm 5 m/s 756 mmHg 58%
    19:00 +12°C° 0 mm 5 m/s 756 mmHg 68%
    20:00 +12°C° 0 mm 4 m/s 756 mmHg 67%
    21:00 +11°C° 0 mm 4 m/s 757 mmHg 67%
    22:00 +11°C° 0 mm 4 m/s 757 mmHg 66%
    23:00 +11°C° 0 mm 3 m/s 757 mmHg 65%

    Poimâine, 30 Martie, Joi

    Timp Temperatura Precipitaţii Vânt Presiune Umiditate
    00:00 +11°C° 0 mm 3 m/s 757 mmHg 65%
    01:00 +10°C° 0 mm 3 m/s 757 mmHg 64%
    02:00 +10°C° 0 mm 3 m/s 757 mmHg 65%
    03:00 +10°C° 0 mm 3 m/s 757 mmHg 65%
    04:00 +10°C° 0 mm 3 m/s 757 mmHg 66%
    05:00 +11°C° 0 mm 3 m/s 757 mmHg 64%
    06:00 +12°C° 0 mm 3 m/s 757 mmHg 62%
    07:00 +13°C° 0 mm 3 m/s 757 mmHg 61%
    08:00 +16°C° 0 mm 3 m/s 757 mmHg 53%
    09:00 +18°C° 0 mm 3 m/s 757 mmHg 46%
    10:00 +21°C° 0 mm 3 m/s 757 mmHg 38%
    11:00 +22°C° 0 mm 4 m/s 757 mmHg 37%
    12:00 +23°C° 0 mm 4 m/s 757 mmHg 35%
    13:00 +25°C° 0 mm 5 m/s 757 mmHg 34%
    14:00 +23°C° 0 mm 5 m/s 756 mmHg 36%
    15:00 +22°C° 0 mm 6 m/s 756 mmHg 39%
    16:00 +22°C° 0 mm 6 m/s 756 mmHg 42%
    17:00 +19°C° 0 mm 6 m/s 756 mmHg 51%
    18:00 +16°C° 0 mm 6 m/s 757 mmHg 60%
    19:00 +14°C° 0 mm 5 m/s 757 mmHg 69%
    20:00 +13°C° 0 mm 5 m/s 757 mmHg 69%
    21:00 +13°C° 0 mm 5 m/s 758 mmHg 69%
    22:00 +13°C° 0 mm 4 m/s 758 mmHg 70%
    23:00 +13°C° 0 mm 4 m/s 758 mmHg 70%

    31 Martie, Vineri

    Timp Temperatura Precipitaţii Vânt Presiune Umiditate
    00:00 +12°C° 0 mm 4 m/s 758 mmHg 71%
    01:00 +12°C° 0 mm 4 m/s 758 mmHg 72%
    02:00 +12°C° 0 mm 4 m/s 758 mmHg 72%
    03:00 +11°C° 0 mm 4 m/s 758 mmHg 73%
    04:00 +11°C° 0 mm 4 m/s 758 mmHg 74%
    05:00 +12°C° 0 mm 4 m/s 758 mmHg 71%
    06:00 +12°C° 0 mm 4 m/s 758 mmHg 68%
    07:00 +13°C° 0 mm 4 m/s 759 mmHg 64%
    08:00 +16°C° 0 mm 3 m/s 759 mmHg 56%
    09:00 +19°C° 0 mm 3 m/s 759 mmHg 48%
    10:00 +21°C° 0 mm 3 m/s 759 mmHg 40%
    11:00 +22°C° 0 mm 3 m/s 758 mmHg 37%
    12:00 +24°C° 0 mm 3 m/s 758 mmHg 35%
    13:00 +25°C° 0 mm 3 m/s 758 mmHg 32%
    14:00 +24°C° 0 mm 3 m/s 757 mmHg 35%
    15:00 +22°C° 0 mm 4 m/s 757 mmHg 38%
    16:00 +21°C° 0 mm 4 m/s 757 mmHg 41%
    17:00 +19°C° 0 mm 4 m/s 757 mmHg 49%
    18:00 +17°C° 0 mm 3 m/s 757 mmHg 58%
    19:00 +14°C° 0 mm 3 m/s 757 mmHg 66%
    20:00 +14°C° 0 mm 2 m/s 758 mmHg 66%
    21:00 +14°C° 0 mm 2 m/s 758 mmHg 67%
    22:00 +14°C° 0 mm 1 m/s 758 mmHg 67%
    23:00 +14°C° 0 mm 1 m/s 758 mmHg 67%

    1 Aprilie, Sâmbătă

    Timp Temperatura Precipitaţii Vânt Presiune Umiditate
    00:00 +13°C° 0 mm 1 m/s 758 mmHg 67%
    01:00 +13°C° 0 mm 1 m/s 758 mmHg 68%
    02:00 +13°C° 0 mm 1 m/s 758 mmHg 69%
    03:00 +12°C° 0 mm 1 m/s 757 mmHg 70%
    04:00 +12°C° 0 mm 2 m/s 757 mmHg 70%
    05:00 +13°C° 0 mm 2 m/s 757 mmHg 69%
    06:00 +14°C° 0 mm 2 m/s 757 mmHg 67%
    07:00 +13°C° 0 mm 3 m/s 757 mmHg 66%
    08:00 +17°C° 0 mm 3 m/s 757 mmHg 58%
    09:00 +19°C° 0 mm 2 m/s 757 mmHg 51%
    10:00 +21°C° 0 mm 2 m/s 757 mmHg 43%
    11:00 +21°C° 0 mm 3 m/s 757 mmHg 43%
    12:00 +21°C° 0 mm 4 m/s 756 mmHg 43%
    13:00 +21°C° 0 mm 4 m/s 756 mmHg 43%
    14:00 +21°C° 0 mm 4 m/s 756 mmHg 47%
    15:00 +20°C° 0 mm 4 m/s 755 mmHg 52%
    16:00 +19°C° 0 mm 4 m/s 755 mmHg 56%
    17:00 +17°C° 0 mm 4 m/s 755 mmHg 65%
    18:00 +14°C° 0 mm 3 m/s 756 mmHg 74%
    19:00 +12°C° 0 mm 3 m/s 756 mmHg 83%
    20:00 +12°C° 0 mm 3 m/s 756 mmHg 83%
    21:00 +11°C° 0 mm 3 m/s 756 mmHg 83%
    22:00 +12°C° 0 mm 2 m/s 756 mmHg 83%
    23:00 +11°C° 0 mm 3 m/s 756 mmHg 80%

    2 Aprilie, Duminică

    Timp Temperatura Precipitaţii Vânt Presiune Umiditate
    00:00 +11°C° 0 mm 3 m/s 756 mmHg 77%
    01:00 +11°C° 0 mm 3 m/s 756 mmHg 74%
    02:00 +10°C° 0 mm 3 m/s 756 mmHg 73%
    03:00 +10°C° 0 mm 3 m/s 756 mmHg 72%
    04:00 +10°C° 0 mm 3 m/s 756 mmHg 71%
    05:00 +11°C° 0 mm 3 m/s 756 mmHg 68%
    06:00 +11°C° 0 mm 3 m/s 756 mmHg 64%
    07:00 +12°C° 0 mm 3 m/s 756 mmHg 61%
    08:00 +14°C° 0 mm 3 m/s 756 mmHg 50%
    09:00 +18°C° 0 mm 2 m/s 756 mmHg 40%
    10:00 +20°C° 0 mm 2 m/s 756 mmHg 29%
    11:00 +21°C° 0 mm 3 m/s 756 mmHg 28%
    12:00 +21°C° 0 mm 4 m/s 755 mmHg 26%
    13:00 +22°C° 0 mm 4 m/s 755 mmHg 25%
    14:00 +21°C° 0 mm 4 m/s 755 mmHg 30%
    15:00 +20°C° 0 mm 5 m/s 754 mmHg 35%
    16:00 +20°C° 0 mm 5 m/s 754 mmHg 40%
    17:00 +18°C° 0 mm 4 m/s 754 mmHg 51%
    18:00 +14°C° 0 mm 3 m/s 754 mmHg 62%
    19:00 +13°C° 0 mm 2 m/s 754 mmHg 73%
    20:00 +13°C° 0 mm 2 m/s 754 mmHg 72%
    21:00 +13°C° 0 mm 2 m/s 754 mmHg 70%
    22:00 +11°C° 0 mm 3 m/s 754 mmHg 68%
    23:00 +11°C° 0 mm 3 m/s 754 mmHg 65%
    Arată mai mult